Location: ?????
(55.6500°N, 37.2500°E)
Time: 03:49:46
(UTC+00:00)

Cosmos 1408 Rocket - Pass Details

Date: 19 May 2025
Orbit: 594 x 625 km, 82.6° (Epoch: 15 June)

Event Time Altitude Azimuth Distance (km) Brightness Sun altitude
Rises 21:16:32 0° 343° (NNW) 2,890 8.6 -14.3°
Reaches altitude 10° 21:18:52 10° 336° (NNW) 1,975 7.3 -14.4°
Maximum altitude 21:22:56 39° 268° (W) 922 4.4 -14.4°
Enters shadow 21:25:26 20° 210° (SSW) 1,416 4.9 -14.4°
